Location: Mitty Observatory
(35.9148°N, 88.8847°W)
Time: 05:12:54
(UTC-06:00)

LightSail 2 - Pass Details

Date: 24 January 2021
Orbit: 688 x 705 km, 24.0° (Epoch: 09 March)

Event Time Altitude Azimuth Distance (km) Brightness Sun altitude
Exits shadow 04:40:24 - 179° (S) 2,181 7.7 -28.4°
Reaches altitude 10° 04:41:10 10° 170° (S) 2,120 7.7 -28.3°
Maximum altitude 04:41:52 10° 162° (SSE) 2,102 7.8 -28.2°
Drops below altitude 10° 04:42:34 10° 154° (SSE) 2,120 7.9 -28.0°
Sets 04:47:25 0° 113° (ESE) 3,037 9.5 -27.0°
